Temperature
19 20 20 21 20 20 20 18 18 19 19 19 17 17 17 18 19 18 18 18 19 19 19 19 19 18 18 18 18 17 17 17 17 17 17 16 16 16 16 16 16 16 16 16
19 20 20 20 20 20 20 19 19 19 19 17 17 17 17 17 18 18 18 18 18 19 19 19 18 18 18 18 18 17 17 17 17 17 16 16 16 16 16 16 16 16 16 16
18 19 20 19 19 19 19 18 19 19 18 16 16 16 16 16 17 17 17 18 18 18 18 19 18 18 18 18 18 17 17 17 17 17 16 16 16 16 16 16 16 16 16 16
16 19 19 18 18 18 17 17 17 17 16 16 16 16 16 17 17 17 17 18 18 18 18 18 18 18 18 18 17 17 17 17 17 17 16 16 16 16 16 16 16 16 16 16
14 16 18 18 18 18 17 17 16 16 16 16 16 16 16 17 17 17 17 17 18 18 18 18 18 18 17 17 17 17 17 17 17 16 16 16 16 16 16 16 16 15 15 15
14 16 17 17 18 18 17 17 16 16 15 15 16 15 15 16 16 17 17 17 17 17 17 17 17 17 17 17 17 17 17 17 16 16 16 16 16 16 15 15 15 15 15 14
14 15 16 16 16 18 18 17 16 16 15 15 15 15 15 16 16 16 16 16 17 17 17 17 17 17 17 16 16 16 16 16 16 16 16 15 15 15 15 14 14 14 14 13
13 15 15 15 16 16 15 15 15 16 16 15 15 15 15 15 15 15 15 15 16 16 16 16 16 16 16 16 16 15 15 15 15 15 15 15 14 14 14 14 14 13 13 13
13 13 13 13 14 14 15 15 15 15 15 15 15 14 14 15 15 15 15 15 15 15 15 15 15 15 15 15 15 15 15 15 14 14 14 14 14 13 13 13 13 12 12 12
12 12 12 13 13 14 15 15 15 15 15 15 15 14 14 14 14 14 14 14 14 14 14 14 14 14 14 14 14 14 14 14 14 13 13 13 13 13 12 12 12 12 11 11
12 12 12 13 13 14 14 15 15 15 15 14 14 14 13 13 13 13 13 13 13 13 13 13 13 13 13 13 14 14 13 13 13 13 13 12 12 11 11 11 11 11 11 11
12 12 11 12 13 13 14 14 14 14 14 14 14 13 13 12 12 13 12 12 13 13 13 12 13 13 13 13 13 13 13 12 12 12 12 12 11 11 10 10 10 10 10 10
13 13 13 13 13 13 13 13 13 14 13 13 13 12 12 12 12 12 12 12 12 12 12 12 12 12 12 12 12 12 12 11 11 11 11 11 11 11 10 9 9 9 9 8
13 13 12 12 12 12 13 13 13 12 12 12 12 12 12 11 11 11 11 11 11 11 11 11 11 11 11 11 11 11 11 11 11 10 10 10 10 10 9 9 8 8 7 7
12 13 12 12 12 12 12 12 11 11 11 11 11 11 11 11 11 11 10 11 11 11 11 11 11 10 11 11 11 11 11 10 10 10 10 9 9 9 9 8 8 7 7 7
12 12 11 11 11 11 11 11 11 10 10 10 10 10 10 10 10 10 10 10 10 10 10 10 10 10 10 10 10 10 10 10 10 10 9 9 9 8 8 8 7 7 6 6
11 10 10 10 10 10 10 10 10 10 10 10 10 10 10 10 10 10 10 10 10 10 10 10 10 10 10 10 10 10 10 9 9 9 9 8 8 8 7 7 7 6 6 5
12 11 11 11 10 10 10 10 10 10 10 10 10 10 9 9 9 9 9 9 9 9 9 9 9 9 9 10 10 10 9 9 9 9 8 8 8 7 7 6 6 6 5 5
11 11 10 10 10 10 10 10 10 10 9 9 9 9 9 9 9 9 9 9 9 9 9 9 9 9 9 9 9 9 9 9 8 8 8 7 7 6 6 6 5 5 5 4
10 10 10 10 10 10 10 9 9 9 9 9 9 9 9 8 9 9 9 9 9 9 9 9 9 9 9 9 9 9 8 8 8 8 7 7 6 6 6 5 5 5 4 4
10 10 10 10 10 9 9 9 9 9 9 9 9 9 9 8 8 9 9 8 8 8 8 9 9 9 8 8 8 8 8 8 7 7 7 6 6 6 5 5 5 4 4 4
10 10 10 10 9 9 9 9 9 9 9 9 9 9 9 8 8 8 8 8 8 8 8 8 8 8 8 8 8 8 7 7 7 7 6 6 6 5 5 5 4 4 4 3
9 10 10 9 9 9 9 9 9 9 9 9 9 9 9 9 8 8 8 8 8 8 8 8 8 8 8 7 7 7 7 7 6 6 6 6 5 5 4 4 4 3 3 3
9 9 9 9 9 9 9 9 9 9 9 9 9 9 9 8 8 8 8 8 8 8 8 7 7 7 7 7 7 6 6 6 6 5 5 5 5 4 4 4 3 3 3 3
9 9 9 9 9 9 9 9 9 9 9 8 8 8 8 8 8 8 7 7 7 7 7 7 7 7 6 6 6 6 6 5 5 5 5 4 4 4 4 3 3 3 3 2
10 10 10 10 9 9 9 9 9 9 8 8 8 8 8 7 7 7 7 7 7 7 7 6 6 6 6 6 6 5 5 5 5 5 4 4 4 4 3 3 3 3 3 2
10 9 9 9 9 9 9 9 9 8 8 8 8 7 7 7 7 7 7 6 6 6 6 6 6 6 5 5 5 5 5 5 4 4 4 4 4 3 3 3 3 3 2 2
Wind_Speed
3 3 5 4 4 5 5 8 8 8 7 6 4 3 1 2 4 6 5 5 5 5 5 4 4 5 6 6 6 7 8 8 8 7 7 6 6 6 6 6 7 6 6 5
3 2 5 3 2 3 3 4 4 4 3 2 1 2 2 2 3 4 4 4 4 3 4 5 5 5 5 6 6 7 8 8 7 7 7 7 6 6 6 5 5 6 6 6
2 0 5 1 2 3 3 1 4 5 4 1 2 2 1 1 1 2 2 3 3 2 3 4 5 5 6 6 6 7 7 7 6 7 6 6 6 6 6 6 6 5 5 5
4 4 5 5 2 4 6 3 1 2 2 2 3 2 2 2 2 2 2 3 3 3 2 2 3 4 4 4 6 7 6 6 6 6 6 5 6 6 6 5 5 5 4 4
4 4 1 3 2 4 5 1 0 3 4 4 4 4 3 3 3 3 2 1 1 1 2 1 2 3 5 5 5 6 5 5 6 6 6 6 6 6 5 5 5 4 4 4
5 5 7 7 2 1 6 1 2 3 5 4 3 2 1 1 3 4 4 2 2 2 3 3 1 3 5 5 5 5 5 5 5 6 6 6 6 5 5 5 5 6 6 5
5 4 5 4 2 2 5 7 4 4 4 4 3 3 3 3 4 4 4 4 3 3 4 3 2 4 5 4 4 4 4 5 5 6 6 6 7 6 7 7 8 8 8 7
5 4 7 2 2 5 5 1 4 4 4 4 4 5 4 4 4 5 5 5 5 5 6 5 3 5 5 4 4 6 7 6 6 6 6 7 8 8 8 8 9 8 8 8
6 5 2 1 1 1 2 3 2 3 4 6 6 5 4 4 4 5 5 5 5 6 7 7 6 5 6 5 7 9 9 9 8 9 8 8 9 9 7 7 7 7 7 8
2 1 0 1 1 2 2 2 2 3 5 6 6 6 6 5 4 4 5 5 5 7 8 7 7 8 7 7 9 11 12 10 10 10 11 10 9 8 7 7 7 8 8 8
2 1 1 2 2 3 4 5 5 5 5 6 7 7 6 5 5 5 5 5 6 7 8 8 8 9 8 8 10 12 12 12 11 11 12 13 12 10 9 8 6 8 7 7
5 6 5 3 1 2 4 4 5 7 7 6 7 7 7 6 5 6 6 6 7 8 9 9 9 9 8 8 10 12 12 11 10 10 10 11 13 14 19 16 18 16 13 12
3 3 3 3 2 2 4 5 5 7 8 7 7 8 8 8 7 7 8 8 9 8 9 9 10 10 8 8 10 12 12 11 9 10 10 10 10 12 12 14 18 18 16 16
4 5 4 2 2 4 6 7 8 8 8 8 8 9 10 10 9 9 9 9 9 10 10 10 11 10 8 9 12 12 12 12 11 9 9 9 10 10 10 11 10 9 12 15
3 3 5 6 6 6 7 9 10 9 9 9 9 10 11 12 11 10 9 9 11 11 10 10 11 9 7 10 12 12 11 9 9 9 9 9 10 10 10 10 10 8 8 9
6 6 8 8 8 7 8 10 10 10 9 10 10 11 11 12 12 11 9 9 11 11 9 10 9 7 7 10 11 10 9 13 11 9 9 9 9 9 9 9 9 8 7 6
8 7 8 9 8 8 8 9 10 10 11 11 12 12 12 13 12 11 10 10 11 10 9 9 8 7 8 9 10 9 9 10 13 10 8 8 8 8 8 8 8 7 6 6
5 7 8 10 10 10 10 10 11 12 11 12 12 12 12 12 11 10 10 11 12 12 10 8 8 9 9 9 9 8 8 9 8 9 8 8 8 8 8 8 8 8 6 7
8 9 9 10 10 11 11 11 11 12 12 12 13 12 11 10 10 10 10 11 11 9 6 6 10 10 9 9 10 8 9 10 9 8 8 9 9 8 7 7 7 6 6 6
9 10 11 12 12 12 13 12 13 12 12 12 13 12 12 10 9 10 11 10 6 4 3 6 8 8 8 9 10 8 9 9 9 8 8 7 7 7 7 7 7 6 6 5
11 12 13 13 12 12 12 13 13 13 11 11 12 12 11 9 8 8 9 7 4 5 6 9 8 7 7 8 10 8 8 8 8 7 7 7 7 6 6 6 6 5 5 4
10 11 12 12 13 12 11 11 12 12 12 11 12 11 11 10 9 8 7 4 3 6 6 6 6 8 9 9 7 8 8 8 7 6 6 6 6 6 5 5 5 4 4 4
10 11 12 12 13 12 12 10 11 11 11 11 10 10 9 7 6 7 6 3 4 7 6 6 8 11 12 8 7 7 7 7 6 6 6 5 6 6 5 5 4 4 4 3
11 11 11 12 12 12 12 10 9 9 10 9 8 8 9 8 6 4 5 6 8 9 7 7 11 11 10 6 6 6 6 6 6 5 5 5 5 5 5 4 4 3 3 3
11 12 12 13 11 9 10 11 11 10 10 8 8 8 6 5 6 5 5 7 9 9 7 8 10 10 7 6 6 6 5 5 5 5 5 5 5 4 4 4 4 3 3 2
10 9 9 9 8 8 8 8 8 7 8 8 7 6 6 6 7 6 6 6 8 8 6 5 5 6 6 5 5 5 5 5 5 5 5 4 4 4 4 3 4 3 3 3
10 9 8 8 7 7 7 8 8 7 7 8 7 5 6 6 6 6 6 5 5 5 4 4 4 5 5 5 4 4 4 4 4 4 4 4 3 3 4 4 4 4 4 4
Wind_Direction
175 182 151 153 157 158 154 168 172 209 210 250 258 243 241 170 146 142 149 159 168 169 170 165 164 173 175 176 172 170 170 179 189 187 184 184 187 187 183 181 185 180 179 181
56 76 125 109 109 138 131 140 158 151 221 271 304 90 73 88 140 152 159 158 164 172 173 174 181 185 180 177 174 167 175 185 184 181 183 186 184 177 172 176 177 172 175 174
153 157 88 125 217 164 136 123 154 180 217 181 85 94 113 111 124 141 151 146 155 179 205 195 191 186 186 183 167 166 176 179 176 176 180 183 176 166 170 176 168 167 171 168
124 117 175 238 281 140 117 82 88 142 146 146 131 114 71 66 87 77 97 117 130 159 191 199 185 177 172 163 162 167 172 176 173 170 174 168 163 168 171 164 160 159 156 158
117 139 169 264 190 153 134 105 354 145 133 115 109 78 40 41 62 74 77 90 114 148 152 157 171 169 155 154 154 157 165 169 167 163 162 158 161 162 156 144 136 129 120 124
121 141 204 224 223 165 110 172 235 159 158 151 113 108 256 36 61 54 56 65 73 79 89 99 126 143 147 156 158 169 171 163 157 153 152 156 155 139 123 121 120 112 97 89
138 171 240 248 271 131 162 217 187 170 172 163 162 182 152 86 62 60 57 51 59 72 74 68 87 127 137 143 155 153 135 128 130 134 137 133 122 114 114 112 107 102 93 77
141 166 231 281 140 172 198 159 154 164 165 144 129 121 114 93 78 68 62 55 56 65 57 44 65 112 118 118 118 113 114 114 113 114 117 116 113 109 109 111 106 102 96 82
177 195 231 309 201 223 145 140 157 156 151 139 135 129 116 98 79 70 64 58 58 68 62 49 50 86 104 105 108 105 101 101 101 97 93 100 106 108 106 105 105 104 100 93
136 200 325 8 42 42 55 108 118 134 140 139 136 131 115 103 87 71 65 60 64 69 66 57 56 70 84 95 101 102 101 98 98 98 91 84 84 87 94 97 103 102 100 97
130 166 76 1 45 66 69 81 90 96 111 121 122 118 113 107 96 86 80 71 72 76 73 66 64 67 74 86 98 98 98 97 94 92 93 86 77 68 76 66 90 104 102 104
196 194 176 201 193 95 96 95 100 103 98 101 110 115 111 104 97 92 85 79 79 79 79 75 73 72 71 80 96 102 99 96 95 96 96 97 96 82 63 71 72 75 84 94
168 140 138 137 101 82 106 104 101 104 111 108 102 112 111 105 95 90 84 82 83 82 83 82 79 74 71 82 90 96 100 99 99 100 100 100 101 102 95 72 64 64 71 82
122 117 116 126 115 99 106 103 99 96 99 104 107 108 108 103 97 91 87 85 85 83 80 80 79 73 73 88 92 94 96 98 101 99 99 99 99 99 102 102 93 73 62 71
82 110 137 125 112 107 107 109 107 105 105 103 106 107 107 105 100 94 89 89 86 82 79 80 80 74 75 90 94 96 98 100 99 100 100 100 99 98 99 99 99 94 85 70
109 107 120 123 126 125 122 121 119 117 115 111 106 103 101 100 97 89 83 86 88 85 81 82 80 77 85 95 96 95 98 104 105 105 105 103 103 104 104 103 100 97 92 88
138 143 141 138 137 133 129 127 124 122 117 112 109 105 102 98 93 86 80 80 83 79 76 82 83 81 86 94 99 103 104 104 103 103 104 106 107 107 107 106 104 99 89 82
141 144 146 144 139 134 127 121 120 118 115 113 110 107 105 103 101 96 92 87 81 70 59 65 80 83 83 89 97 101 102 101 101 103 102 101 103 105 107 107 107 103 95 86
121 124 126 128 131 129 125 121 117 113 113 114 112 107 102 100 99 97 92 86 84 78 54 61 87 88 89 96 102 103 106 106 102 100 102 104 102 104 107 108 108 106 104 99
113 117 118 119 121 123 122 119 116 114 114 115 112 109 104 100 99 96 88 80 71 81 88 92 91 90 93 99 102 104 108 110 111 108 107 109 111 109 109 111 110 109 106 104
118 118 117 118 117 118 120 121 120 118 116 116 116 115 111 104 99 98 96 88 54 68 87 90 90 93 93 100 100 105 108 111 113 116 117 117 116 114 112 112 112 112 112 109
121 121 120 119 117 115 114 114 116 117 115 114 114 114 112 107 100 89 79 91 89 93 92 90 94 101 103 101 101 105 107 110 112 115 117 119 120 120 119 119 120 121 121 119
119 119 119 118 117 115 111 111 115 117 118 119 121 121 117 112 111 114 105 87 95 100 98 98 105 103 101 98 103 106 109 111 115 119 123 124 127 130 132 132 131 131 132 129
113 114 114 115 114 114 114 112 109 108 108 108 111 116 117 109 88 79 103 108 107 103 97 103 105 102 99 99 103 106 110 115 119 122 123 123 124 128 133 137 139 141 144 144
111 112 115 118 117 117 117 114 109 105 103 100 95 93 96 106 115 112 105 106 105 100 96 97 101 100 99 104 107 110 114 121 127 129 129 130 133 138 143 148 153 157 161 169
108 109 111 113 117 120 121 118 114 112 113 109 98 95 96 96 102 101 98 100 102 104 104 103 104 102 104 106 108 111 115 121 125 131 139 141 144 148 154 161 169 179 187 197
99 103 105 103 102 111 117 119 121 122 124 125 118 110 108 108 107 107 107 108 109 108 107 105 107 109 112 114 114 114 120 131 137 142 148 153 160 171 181 186 194 199 202 207
Height
1458 1455 1456 1457 1460 1463 1467 1473 1480 1477 1475 1468 1466 1465 1465 1465 1466 1468 1470 1473 1475 1477 1479 1482 1484 1486 1488 1490 1493 1495 1498 1501 1504 1507 1510 1513 1516 1518 1521 1524 1527 1529 1532 1534
1459 1455 1455 1459 1459 1461 1463 1466 1468 1469 1470 1465 1464 1465 1465 1466 1466 1468 1470 1472 1475 1477 1479 1481 1483 1485 1487 1489 1492 1494 1496 1499 1502 1505 1508 1510 1513 1516 1518 1521 1524 1527 1529 1531
1468 1460 1459 1470 1463 1462 1463 1464 1465 1469 1468 1465 1465 1465 1465 1466 1466 1467 1470 1471 1474 1475 1478 1479 1482 1484 1486 1488 1490 1492 1495 1498 1500 1503 1505 1508 1511 1513 1516 1518 1521 1523 1526 1528
1471 1467 1478 1469 1458 1458 1462 1464 1463 1463 1464 1464 1464 1465 1466 1467 1468 1468 1470 1471 1472 1475 1477 1478 1480 1482 1484 1486 1488 1491 1493 1496 1498 1500 1503 1506 1508 1510 1513 1516 1518 1520 1523 1525
1476 1477 1473 1465 1458 1459 1462 1466 1463 1463 1464 1465 1465 1466 1468 1468 1468 1469 1470 1471 1472 1474 1475 1477 1479 1481 1483 1484 1486 1488 1491 1494 1496 1498 1501 1503 1505 1507 1510 1513 1515 1517 1520 1522
1474 1477 1480 1466 1457 1456 1460 1468 1462 1462 1463 1464 1465 1470 1470 1468 1469 1469 1471 1472 1473 1474 1474 1475 1477 1479 1480 1482 1484 1486 1489 1492 1494 1496 1498 1501 1503 1505 1508 1510 1512 1515 1517 1519
1471 1473 1468 1458 1455 1456 1469 1467 1460 1461 1462 1464 1465 1467 1468 1468 1469 1470 1471 1472 1473 1473 1474 1474 1475 1477 1478 1480 1482 1485 1488 1490 1493 1495 1497 1499 1502 1504 1506 1508 1511 1513 1515 1517
1470 1472 1470 1455 1455 1458 1459 1456 1458 1459 1461 1463 1464 1466 1467 1468 1469 1470 1471 1472 1472 1472 1472 1473 1474 1475 1476 1478 1481 1484 1486 1489 1491 1494 1496 1498 1500 1503 1505 1508 1510 1512 1514 1516
1461 1463 1457 1454 1454 1455 1455 1456 1457 1459 1461 1462 1464 1466 1467 1469 1470 1471 1471 1472 1473 1473 1473 1474 1475 1476 1477 1479 1481 1483 1486 1488 1491 1493 1495 1498 1500 1502 1505 1508 1509 1512 1514 1516
1457 1456 1455 1454 1454 1454 1454 1456 1457 1458 1460 1462 1463 1465 1467 1469 1471 1471 1472 1473 1474 1474 1475 1475 1476 1477 1478 1480 1482 1483 1486 1488 1491 1494 1496 1498 1500 1503 1506 1509 1510 1512 1514 1516
1455 1455 1454 1454 1454 1454 1455 1456 1457 1459 1460 1462 1464 1466 1468 1470 1471 1472 1474 1474 1476 1476 1477 1477 1478 1479 1480 1482 1484 1485 1488 1490 1493 1495 1497 1500 1502 1505 1508 1510 1513 1515 1517 1518
1453 1451 1453 1454 1454 1455 1456 1457 1458 1459 1461 1463 1465 1467 1469 1471 1473 1474 1476 1477 1478 1479 1479 1480 1481 1482 1483 1485 1486 1487 1489 1492 1495 1498 1500 1502 1504 1508 1511 1514 1516 1519 1521 1522
1447 1449 1451 1453 1454 1456 1456 1458 1459 1461 1462 1464 1466 1468 1470 1472 1474 1476 1478 1479 1480 1481 1482 1484 1485 1486 1487 1489 1490 1491 1492 1496 1499 1502 1504 1507 1509 1511 1514 1518 1521 1523 1524 1525
1446 1448 1451 1453 1454 1456 1457 1459 1460 1462 1464 1466 1468 1470 1472 1474 1477 1479 1481 1482 1484 1485 1486 1487 1488 1490 1492 1493 1495 1496 1498 1501 1503 1506 1508 1511 1514 1516 1518 1521 1523 1525 1528 1529
1446 1448 1450 1453 1455 1457 1458 1460 1462 1464 1466 1469 1471 1473 1475 1477 1480 1482 1484 1486 1487 1489 1491 1492 1493 1495 1497 1499 1501 1502 1504 1506 1509 1511 1514 1516 1518 1520 1522 1525 1527 1529 1530 1532
1446 1448 1450 1452 1455 1457 1459 1461 1463 1466 1469 1471 1474 1476 1479 1481 1483 1486 1488 1490 1491 1493 1495 1497 1499 1501 1503 1505 1506 1508 1509 1512 1514 1517 1519 1521 1523 1525 1527 1529 1530 1532 1533 1535
1445 1448 1450 1452 1455 1458 1460 1463 1466 1469 1472 1475 1477 1480 1483 1485 1487 1490 1492 1494 1496 1498 1500 1502 1504 1506 1508 1510 1511 1513 1515 1517 1519 1521 1523 1525 1527 1529 1530 1532 1533 1535 1536 1538
1445 1446 1449 1451 1455 1459 1462 1466 1469 1472 1475 1478 1481 1484 1487 1489 1491 1494 1497 1499 1501 1503 1506 1508 1509 1511 1513 1515 1516 1518 1520 1521 1523 1525 1527 1529 1530 1532 1533 1535 1536 1537 1539 1540
1445 1447 1451 1454 1458 1461 1465 1469 1472 1476 1479 1482 1485 1488 1491 1494 1497 1499 1501 1503 1505 1507 1510 1512 1514 1516 1517 1519 1520 1522 1524 1525 1527 1529 1530 1532 1533 1535 1536 1538 1539 1540 1541 1542
1447 1450 1453 1457 1461 1465 1468 1472 1476 1480 1484 1487 1490 1493 1496 1499 1502 1504 1506 1508 1510 1513 1515 1517 1518 1520 1522 1523 1524 1526 1527 1529 1530 1532 1533 1535 1536 1538 1539 1540 1541 1542 1543 1543
1450 1453 1457 1461 1465 1469 1473 1476 1480 1484 1488 1491 1494 1497 1500 1504 1506 1509 1510 1512 1515 1517 1519 1521 1522 1524 1525 1527 1528 1529 1531 1532 1533 1535 1536 1537 1539 1540 1541 1543 1543 1544 1545 1545
1454 1457 1461 1465 1469 1473 1477 1481 1485 1488 1492 1496 1499 1502 1505 1507 1510 1513 1515 1517 1519 1521 1523 1524 1526 1527 1528 1530 1531 1532 1533 1535 1536 1537 1538 1540 1541 1542 1543 1544 1545 1545 1546 1546
1457 1461 1465 1469 1473 1477 1482 1486 1490 1493 1497 1500 1503 1506 1508 1511 1514 1516 1518 1521 1522 1524 1526 1527 1529 1530 1531 1532 1533 1534 1536 1537 1538 1539 1540 1542 1543 1544 1544 1545 1546 1546 1546 1547
1462 1466 1470 1474 1478 1482 1486 1491 1494 1498 1501 1504 1507 1510 1512 1514 1517 1519 1521 1523 1525 1527 1528 1530 1531 1533 1534 1535 1536 1537 1538 1539 1540 1541 1542 1543 1544 1545 1545 1546 1546 1547 1547 1547
1467 1471 1475 1479 1483 1487 1491 1495 1498 1502 1505 1508 1511 1514 1516 1519 1520 1522 1524 1526 1528 1529 1531 1532 1534 1535 1536 1537 1537 1538 1539 1540 1541 1542 1543 1544 1545 1546 1546 1546 1547 1547 1547 1546
1473 1476 1480 1484 1488 1491 1495 1498 1501 1505 1508 1511 1514 1517 1520 1522 1524 1525 1527 1529 1530 1532 1533 1534 1536 1537 1538 1539 1539 1540 1541 1542 1543 1544 1544 1545 1546 1546 1547 1547 1547 1546 1546 1546
1478 1482 1486 1489 1493 1496 1499 1502 1505 1508 1511 1514 1517 1520 1522 1524 1526 1528 1529 1531 1532 1534 1535 1536 1537 1539 1539 1540 1541 1542 1543 1543 1544 1545 1546 1546 1546 1547 1547 1546 1546 1546 1546 1545